Home > Weather > Bundi > Past weeks

Flag for India Past Weather in Bundi, Rajasthan, India — Yesterday and Last 2 Weeks

Now
79 °F

Light rain. More clouds than sun.


Feels Like: 83 °F
Forecast: 78 / 88 °F
Wind: 7 mph from West

Location: Jaipur / Sanganer

Current Time: Jul 29, 2016 at 5:35:09 PM

Latest Report: Jul 29, 2016 at 5:00 PM


Visibility: 2 mi

Pressure: 29.59 "Hg

Humidity: 94%

Dew Point: 77 °F

Location of BundiLocation

Past Weather in Bundi — Graph

°F

Bundi Temperature Yesterday

Maximum temperature yesterday: 90 °F (at 1:30 PM)
Minimum temperature yesterday: 77 °F (at 6:00 PM)
Average temperature yesterday: 81 °F

High & Low Weather Summary for the Past Weeks

 TemperatureHumidityPressure
High97 °F (Jul 20, 4:00 PM)100% (Jul 15, 11:00 AM)29.74 "Hg (Jul 15, 11:00 AM)
Low75 °F (Jul 16, 2:00 PM)39% (Jul 23, 2:00 PM)29.53 "Hg (Jul 14, 3:30 PM)
Average85 °F75%29.64 "Hg
* Reported Jul 14 3:30 PM — Jul 29 4:00 PM, Bundi, Weather by CustomWeather, © 2016

Note: Actual official high and low records may vary slightly from our data, if they occured in-between our weather recording intervals... More about our weather records

Advertising

Bundi Weather History for the Previous 24 Hours

Scroll right to see more
 ConditionsComfort  
Time TempWeatherWind HumidityBarometerVisibility
4:00 PM
Fri, Jul 29
79 °FRain. More clouds than sun.7 mph94%29.56 "Hg1 mi
3:30 PM79 °FLight rain. More clouds than sun.7 mph94%29.59 "Hg1 mi
3:00 PM82 °FRain. More clouds than sun.9 mph79%29.59 "Hg1 mi
2:00 PM86 °FBroken clouds.3 mph70%29.59 "Hg4 mi
1:30 PM88 °FBroken clouds.7 mph66%29.62 "Hg4 mi
1:00 PM86 °FMore clouds than sun.7 mph75%29.62 "Hg4 mi
12:30 PM86 °FMore clouds than sun.6 mph70%29.65 "Hg4 mi
12:00 PM84 °FMore clouds than sun.7 mph74%29.65 "Hg4 mi
11:30 AM84 °FMore clouds than sun.6 mph79%29.65 "Hg4 mi
11:00 AM84 °FMore clouds than sun.7 mph79%29.68 "Hg4 mi
10:30 AM82 °FMore clouds than sun.6 mph84%29.68 "Hg2 mi
10:00 AM81 °FMore clouds than sun.6 mph89%29.68 "Hg2 mi
8:30 AM79 °FFog.6 mph100%29.65 "Hg1 mi
8:00 AM79 °FFog.7 mph100%29.65 "Hg1 mi
7:00 AM79 °FMore clouds than sun.2 mph100%29.65 "Hg2 mi
6:30 AM79 °FMore clouds than sun.1 mph100%29.62 "Hg1 mi
6:00 AM79 °FMostly cloudy.No wind100%29.62 "Hg1 mi
5:00 AM81 °FMostly cloudy.1 mph94%29.62 "Hg1 mi
4:00 AM79 °FMostly cloudy.No wind100%29.62 "Hg2 mi
3:30 AM79 °FMostly cloudy.No wind100%29.62 "Hg2 mi
3:00 AM79 °FMostly cloudy.No wind94%29.62 "Hg2 mi
2:00 AM79 °FMostly cloudy.1 mph100%29.62 "Hg2 mi
1:00 AM79 °FMostly cloudy.6 mph94%29.65 "Hg1 mi
12:00 AM79 °FMostly cloudy.No wind94%29.65 "Hg1 mi
11:00 PM
Thu, Jul 28
79 °FDrizzle. Mostly cloudy.1 mph94%29.65 "Hg1 mi
10:30 PM79 °FDrizzle. Mostly cloudy.No wind94%29.62 "Hg1 mi
10:00 PM79 °FMostly cloudy.3 mph94%29.65 "Hg1 mi
9:00 PM79 °FDrizzle. Mostly cloudy.1 mph94%29.65 "Hg1 mi
8:00 PM79 °FDrizzle. Mostly cloudy.1 mph100%29.62 "Hg1 mi
7:30 PM79 °FThunderstorms. More clouds than sun.1 mph94%29.62 "Hg1 mi
7:00 PM77 °FThunderstorms. More clouds than sun.6 mph100%29.62 "Hg1 mi
6:30 PM77 °FThunderstorms. More clouds than sun.6 mph100%29.62 "Hg1 mi
6:00 PM77 °FThunderstorms. More clouds than sun.7 mph100%29.62 "Hg2 mi
5:05 PM79 °FRain. Broken clouds.9 mph89%29.62 "Hg0 mi
5:00 PM81 °FLight rain. Broken clouds.10 mph84%29.62 "Hg2 mi
Weather by CustomWeather, © 2016

See weather overviewHow to use our weather pages